Location: *
(90.0000°N, 180.0000°W)
Time: 20:00:31
(UTC+01:00)

Okean O Rocket - Visible Passes

Search period start: 02 March 2015 00:00
Search period end: 12 March 2015 00:00
Orbit: 625 x 645 km, 98.0° (Epoch: 28 February)

Date Brightness Start Highest point End Pass type
(mag) Time Alt. Az. Time Alt. Az. Time Alt. Az.
02 Mar 3.4 01:03:41 10° SSE 01:07:43 31° SW 01:11:45 10° WNW visible
02 Mar 3.4 02:41:10 10° S 02:45:12 31° WSW 02:49:14 10° NW visible
02 Mar 3.4 04:18:39 10° SW 04:22:41 31° W 04:26:43 10° NNW visible
02 Mar 3.4 05:56:08 10° WSW 06:00:11 31° WNW 06:04:12 10° N visible
02 Mar 3.4 07:33:37 10° W 07:37:39 31° NNW 07:41:41 10° NNE visible
02 Mar 3.4 09:11:07 10° WNW 09:15:09 31° N 09:19:10 10° NE visible
02 Mar 3.4 10:48:36 10° NW 10:52:38 31° NNE 10:56:40 10° E visible
02 Mar 3.4 12:26:05 10° NNW 12:30:07 31° NE 12:34:09 10° ESE visible
02 Mar 3.4 14:03:34 10° N 14:07:36 31° ENE 14:11:38 10° SE visible
02 Mar 3.4 15:41:03 10° NNE 15:45:06 31° E 15:49:07 10° SSE visible
02 Mar 3.4 17:18:32 10° NE 17:22:34 31° ESE 17:26:36 10° S visible
02 Mar 3.4 18:56:02 10° ENE 19:00:04 31° SE 19:04:05 10° SSW visible
02 Mar 3.4 20:33:31 10° E 20:37:33 31° SSE 20:41:35 10° SW visible
02 Mar 3.4 22:11:00 10° ESE 22:15:02 31° S 22:19:04 10° WSW visible
02 Mar 3.4 23:48:29 10° SSE 23:52:31 31° SSW 23:56:33 10° W visible
03 Mar 3.4 01:25:58 10° S 01:30:01 31° SW 01:34:02 10° WNW visible
03 Mar 3.4 03:03:28 10° SSW 03:07:30 31° W 03:11:31 10° NW visible
03 Mar 3.4 04:40:57 10° SW 04:44:59 31° WNW 04:49:01 10° NNW visible
03 Mar 3.4 06:18:26 10° WSW 06:22:28 31° NW 06:26:30 10° NNE visible
03 Mar 3.4 07:55:55 10° W 07:59:57 31° NNW 08:03:59 10° NE visible
03 Mar 3.4 09:33:24 10° WNW 09:37:26 31° N 09:41:28 10° ENE visible
03 Mar 3.4 11:10:53 10° NW 11:14:56 31° NNE 11:18:57 10° E visible
03 Mar 3.4 12:48:23 10° NNW 12:52:25 31° NE 12:56:26 10° ESE visible
03 Mar 3.4 14:25:52 10° N 14:29:54 31° ENE 14:33:56 10° SE visible
03 Mar 3.4 16:03:21 10° NNE 16:07:23 31° E 16:11:25 10° SSE visible
03 Mar 3.4 17:40:50 10° NE 17:44:53 31° ESE 17:48:54 10° S visible
03 Mar 3.4 19:18:19 10° E 19:22:21 31° SE 19:26:23 10° SSW visible
03 Mar 3.4 20:55:48 10° ESE 20:59:50 31° SSE 21:03:52 10° SW visible
03 Mar 3.4 22:33:18 10° SE 22:37:20 31° SSW 22:41:21 10° WSW visible
04 Mar 3.4 00:10:47 10° SSE 00:14:48 31° SW 00:18:51 10° W visible
04 Mar 3.4 01:48:16 10° S 01:52:18 31° WSW 01:56:20 10° NW visible
04 Mar 3.4 03:25:45 10° SSW 03:29:47 31° W 03:33:49 10° NNW visible
04 Mar 3.4 05:03:14 10° SW 05:07:16 31° WNW 05:11:18 10° N visible
04 Mar 3.4 06:40:43 10° WSW 06:44:45 31° NW 06:48:47 10° NNE visible
04 Mar 3.4 08:18:12 10° W 08:22:15 31° NNW 08:26:16 10° NE visible
04 Mar 3.4 09:55:42 10° WNW 09:59:43 31° N 10:03:46 10° ENE visible
04 Mar 3.4 11:33:11 10° NW 11:37:13 31° NNE 11:41:15 10° E visible
04 Mar 3.4 13:10:40 10° NNW 13:14:42 31° NE 13:18:44 10° ESE visible
04 Mar 3.4 14:48:09 10° NNE 14:52:11 31° ENE 14:56:13 10° SE visible
04 Mar 3.4 16:25:38 10° NE 16:29:40 31° E 16:33:42 10° SSE visible
04 Mar 3.4 18:03:07 10° ENE 18:07:10 31° SE 18:11:11 10° S visible
04 Mar 3.4 19:40:37 10° E 19:44:38 31° SSE 19:48:40 10° SSW visible
04 Mar 3.4 21:18:06 10° ESE 21:22:08 31° S 21:26:10 10° WSW visible
04 Mar 3.4 22:55:35 10° SE 22:59:37 31° SSW 23:03:39 10° W visible
05 Mar 3.4 00:33:04 10° SSE 00:37:07 31° SW 00:41:08 10° WNW visible
05 Mar 3.4 02:10:33 10° S 02:14:35 31° WSW 02:18:37 10° NW visible
05 Mar 3.4 03:48:02 10° SSW 03:52:05 31° W 03:56:06 10° NNW visible
05 Mar 3.4 05:25:32 10° SW 05:29:33 31° WNW 05:33:35 10° N visible
05 Mar 3.4 07:03:01 10° WSW 07:07:03 31° NW 07:11:05 10° NNE visible
05 Mar 3.4 08:40:30 10° W 08:44:32 31° NNW 08:48:34 10° NE visible
05 Mar 3.4 10:17:59 10° NW 10:22:02 31° N 10:26:03 10° ENE visible
05 Mar 3.4 11:55:28 10° NNW 11:59:30 31° NNE 12:03:32 10° E visible
05 Mar 3.4 13:32:57 10° N 13:37:00 31° ENE 13:41:01 10° ESE visible
05 Mar 3.4 15:10:27 10° NNE 15:14:28 31° E 15:18:30 10° SE visible
05 Mar 3.4 16:47:56 10° NE 16:51:58 31° ESE 16:56:00 10° S visible
